Skip Page Navigation
NASA JPL Caltech
NASA Logo - Jet Propulsion Laboratory + View the NASA Portal
+ Center for Near-Earth Object Studies
JPL Home Earth Solar System Stars & Galaxies Technology
JPL Solar System Dynamics
BODIES ORBITS EPHEMERIDES TOOLS PHYSICAL DATA DISCOVERY FAQ SITE MAP
IMPORTANT: The SSD Announcement email list is now available. Major changes are coming in the near future, including possible hostname and/or URL changes. To be notified of such changes, subscribe to this email list.

Please visit this page for more details.


JPL Small-Body Database Browser
Search: [ help ]  
393133 (2013 BZ47)
Classification: Main-belt Asteroid          SPK-ID: 2393133
Ephemeris | Orbit Diagram | Orbital Elements | Mission Design | Physical Parameters | Discovery Circumstances | Close-Approach Data ]

[ show orbit diagram ]
Orbital Elements at Epoch 2459000.5 (2020-May-31.0) TDB
Reference: JPL 13 (heliocentric ecliptic J2000)
 Element Value Uncertainty (1-sigma)   Units 
e .1648102452151092 5.7024e-08  
a 2.350894844782972 2.7549e-08 au
q 1.963443288939354 1.2577e-07 au
i 6.841408612260627 6.1489e-06 deg
node 86.77202818386519 5.3758e-05 deg
peri 249.1600700388118 5.8142e-05 deg
M 146.7435452844022 2.8861e-05 deg
tp 2458463.833188099300
(2018-Dec-11.33318810)
9.8741e-05 TDB
period 1316.582967310847
3.60
2.3143e-05
6.336e-08
d
yr
n .2734351035509056 4.8065e-09 deg/d
Q 2.73834640062659 3.209e-08 au
  Orbit Determination Parameters
   # obs. used (total)      110  
   data-arc span      5542 days (15.17 yr)  
   first obs. used      2004-10-04  
   last obs. used      2019-12-07  
   planetary ephem.      DE431  
   SB-pert. ephem.      SB431-N16  
   condition code      0  
   norm. resid. RMS      .6056  
   source      ORB  
   producer      Otto Matic  
   solution date      2019-Dec-14 21:27:46  

Additional Information
 Earth MOID = .965884 au 
 Jupiter MOID = 2.63525 au 
 T_jup = 3.530 
[ show covariance matrix ]

Ephemeris | Orbit Diagram | Orbital Elements | Mission Design | Physical Parameters | Discovery Circumstances | Close-Approach Data ]

Physical Parameter Table
Parameter Symbol Value Units Sigma Reference Notes
absolute magnitude H 17.8   n/a MPO297783  

393133 (2013 BZ47)          Discovered 2007-May-11 by Mt. Lemmon Survey at Mount Lemmon
Reference: Last Updated: 2014-04-17

[ show close-approach data ]
Alternate Designations
 2013 BZ47 = 2008 YV10 
Ephemeris | Orbit Diagram | Orbital Elements | Mission Design | Physical Parameters | Discovery Circumstances | Close-Approach Data ]
ABOUT SSD CREDITS/AWARDS PRIVACY/COPYRIGHT GLOSSARY LINKS
FirstGov 2020-Apr-06 15:52 UT
(server date/time)  
NASA Home Page
Site Manager:   Ryan S. Park
Webmaster  Alan B. Chamberlin